Total_Precipitation_Accumulation
0.53 0.53 0.55 0.55 0.52 0.56 0.69 0.84 0.84 0.90 1.08 0.97 1.03 1.18 1.27 1.65 2.16 2.39 1.74 1.38 1.29 1.14 0.99 1.09 2.09 3.61 2.66 1.77 0.60 0.44 0.83 0.66 1.15 1.64 1.03 1.44 1.31 1.19 0.68 0.35 0.51 0.52 0.60 0.57 0.71 0.62 0.47
0.52 0.51 0.54 0.53 0.52 0.57 0.80 0.84 0.85 0.96 0.85 0.84 0.92 0.88 0.90 1.16 1.45 1.62 1.38 1.31 1.27 1.08 1.08 1.36 2.35 2.94 1.98 1.36 0.54 0.58 0.60 0.71 0.85 1.10 0.94 1.31 1.20 1.10 0.72 0.48 0.54 0.33 0.59 0.76 1.00 0.79 0.86
0.47 0.50 0.52 0.52 0.57 0.69 0.77 0.67 0.59 0.59 0.68 0.75 0.86 0.84 0.75 1.05 1.27 1.34 1.29 1.23 1.13 0.93 1.13 1.51 2.07 2.18 1.78 1.21 0.80 0.84 0.41 0.80 1.16 0.87 0.98 1.03 1.16 1.53 0.99 0.61 0.40 0.47 0.89 1.13 1.14 1.25 1.23
0.50 0.49 0.50 0.52 0.64 0.73 0.64 0.52 0.56 0.57 0.64 0.84 0.90 0.78 0.71 0.89 0.93 0.94 0.90 0.84 0.91 1.10 1.39 1.91 2.42 1.87 2.11 1.19 0.76 0.55 0.29 0.47 0.86 1.13 1.13 1.24 0.94 1.39 1.19 0.81 0.63 0.92 1.31 1.26 1.00 1.33 1.94
0.54 0.50 0.53 0.62 0.78 0.67 0.57 0.56 0.61 0.60 0.75 0.95 0.93 0.91 0.97 1.05 0.98 1.01 1.05 1.09 0.99 0.94 1.44 2.16 2.23 1.87 2.15 1.49 0.73 0.30 0.30 0.45 0.80 1.60 2.04 2.19 2.04 1.66 1.15 1.34 1.35 1.20 0.92 0.89 0.81 0.83 1.97
0.62 0.60 0.60 0.62 0.67 0.58 0.63 0.64 0.64 0.73 0.99 1.10 1.10 1.36 1.30 0.98 1.10 1.16 1.13 1.98 2.01 1.02 1.62 2.04 1.86 1.83 1.77 1.36 0.56 0.31 0.35 0.58 1.03 2.09 2.91 3.16 3.27 2.07 1.04 1.43 1.55 1.30 0.74 0.53 0.79 0.71 1.26
0.60 0.64 0.53 0.70 0.58 0.65 0.67 0.71 0.66 0.86 1.07 1.16 1.18 1.20 0.97 0.94 0.93 0.82 1.02 1.78 1.96 2.11 2.32 1.89 1.05 0.81 0.94 0.94 0.58 0.55 0.54 0.77 1.68 2.54 2.72 2.86 2.73 1.93 0.63 0.48 0.61 0.47 0.59 0.44 0.61 0.79 0.68
0.64 0.71 0.70 0.69 0.66 0.61 0.69 0.69 0.75 0.90 0.98 0.98 0.94 0.88 0.83 0.88 1.00 1.19 1.33 1.58 1.30 1.76 2.67 1.85 0.79 0.62 0.64 0.58 0.87 0.72 0.85 1.49 1.82 2.25 2.12 2.64 2.17 1.01 0.78 0.54 0.57 0.71 0.85 0.56 0.54 0.81 0.71
0.74 0.76 0.77 0.69 0.58 0.60 0.67 0.74 0.94 1.06 1.10 0.99 0.81 0.77 0.80 0.95 1.03 1.40 1.30 1.01 1.01 1.12 2.07 2.29 1.33 1.07 0.85 0.58 0.95 0.80 1.15 1.55 1.64 1.55 1.30 1.60 1.03 0.68 1.08 0.99 1.16 0.83 0.73 0.51 0.60 0.62 0.61
0.78 0.69 0.65 0.59 0.64 0.74 0.77 0.79 0.88 0.99 1.10 1.03 0.90 0.96 1.04 1.17 1.35 1.02 1.27 0.94 0.83 1.14 1.81 2.03 1.25 1.16 0.65 1.08 1.31 0.60 1.66 1.65 1.74 1.41 1.08 1.29 0.75 0.91 1.24 1.60 1.02 0.96 0.37 0.42 0.86 1.03 1.05
0.99 0.74 0.61 0.57 0.63 0.76 0.91 0.98 1.08 1.09 1.18 1.25 1.29 1.09 0.93 1.28 1.31 1.16 0.86 0.64 0.87 1.53 1.89 1.43 1.07 0.75 0.90 0.93 0.75 0.80 1.30 1.36 1.34 1.20 1.36 1.18 0.80 0.92 0.86 1.19 1.09 1.31 0.40 0.44 0.80 1.40 1.77
0.81 0.56 0.63 0.72 0.78 0.80 0.85 0.94 1.25 1.43 1.38 1.41 1.25 1.18 1.07 1.05 0.98 0.98 0.84 0.61 1.29 1.72 2.28 2.04 1.51 1.31 0.79 0.56 0.58 1.02 1.35 1.02 1.08 1.15 1.23 0.91 0.74 1.11 0.93 0.78 0.93 0.98 1.04 0.93 1.25 2.09 3.06
0.63 0.61 0.79 0.89 0.92 0.92 1.00 1.23 1.36 1.22 1.26 1.25 1.21 1.41 1.31 0.79 0.89 0.85 1.31 1.13 1.55 1.33 1.25 1.48 1.17 0.58 0.42 0.54 0.87 1.24 1.37 0.94 1.34 1.86 1.77 1.53 1.35 1.06 0.80 1.10 1.31 1.10 1.68 2.72 3.01 3.39 2.06
0.66 0.70 0.87 0.97 1.08 1.27 1.56 1.69 1.36 1.16 1.22 1.19 1.42 1.45 1.47 1.01 0.94 0.99 1.80 1.29 1.24 0.93 1.00 0.83 0.41 0.40 0.51 0.40 0.59 0.80 1.09 0.75 0.53 0.73 1.17 1.36 1.82 1.60 1.08 1.22 1.59 1.24 1.53 2.39 2.26 1.49 1.26
0.70 0.95 1.19 1.21 1.40 1.68 1.71 1.42 1.13 1.18 1.26 1.30 1.78 1.97 1.74 1.48 1.20 1.32 1.48 1.23 1.22 1.10 1.01 0.50 0.33 0.39 0.41 0.19 0.30 0.55 0.54 0.44 0.41 0.42 1.18 1.09 1.24 0.91 1.05 0.94 1.17 1.34 1.47 1.42 2.10 1.14 1.09
0.91 1.07 1.25 1.52 1.67 1.78 1.63 1.29 1.39 1.40 1.59 1.68 2.35 2.66 1.63 1.35 1.47 1.46 1.34 1.16 0.83 0.49 0.30 0.21 0.39 0.23 0.14 0.07 0.14 0.16 0.28 0.15 0.23 0.21 0.41 0.78 1.18 1.21 1.11 0.96 0.96 1.00 0.99 1.51 2.37 2.17 1.46
1.04 1.24 1.43 1.70 1.89 1.97 1.72 1.52 1.61 1.81 1.76 2.14 2.38 2.51 1.68 1.75 2.08 2.07 1.62 1.22 0.51 0.19 0.16 0.19 0.21 0.16 0.07 0.12 0.21 0.35 0.53 0.39 0.30 0.32 0.40 0.88 1.65 1.31 1.23 1.14 1.01 1.12 1.35 1.13 1.47 1.55 1.51
1.18 1.36 1.60 1.78 2.06 2.05 2.07 1.88 1.80 2.09 2.03 2.39 2.27 2.08 1.93 2.35 2.58 1.83 1.12 0.81 0.48 0.17 0.18 0.17 0.20 0.15 0.24 0.25 0.31 0.31 0.33 0.43 0.21 0.19 0.48 0.62 1.30 1.20 1.12 0.63 0.55 0.71 0.85 0.88 1.83 1.36 1.07
1.40 1.38 1.40 1.65 1.92 2.20 2.58 2.33 1.65 2.07 2.27 2.27 2.22 1.96 2.78 1.58 1.16 0.78 0.49 0.45 0.31 0.13 0.18 0.28 0.28 0.22 0.24 0.25 0.38 0.31 0.21 0.17 0.07 0.08 0.45 0.77 1.48 1.14 0.96 0.74 0.77 1.17 0.83 0.98 1.39 1.84 1.45
1.53 1.40 1.42 1.65 1.88 2.13 2.48 2.68 2.03 1.94 2.18 2.44 2.36 2.22 3.82 2.50 0.64 0.30 0.57 0.59 0.38 0.16 0.21 0.30 0.34 0.21 0.22 0.15 0.18 0.37 0.11 0.09 0.05 0.05 0.31 1.09 1.26 1.17 1.05 1.00 1.20 1.05 0.59 0.92 1.62 1.90 0.81
1.49 1.33 1.31 1.63 1.87 2.01 2.22 2.82 3.19 2.60 2.56 2.46 2.09 1.23 1.08 1.16 0.61 0.25 0.60 0.64 0.52 0.40 0.29 0.25 0.25 0.13 0.43 0.54 0.22 0.14 0.14 0.16 0.09 0.06 0.30 0.96 1.43 1.33 0.58 0.42 0.80 0.76 0.56 0.70 1.38 0.93 0.95
1.42 1.33 1.29 1.47 1.98 2.22 2.12 2.28 2.98 2.66 2.81 2.03 1.48 1.18 0.67 0.41 0.20 0.29 0.41 0.51 0.47 0.52 0.56 0.46 0.42 0.25 0.46 0.65 0.60 0.71 0.62 0.52 0.40 0.25 0.34 0.76 1.21 0.88 0.41 0.26 0.44 0.60 0.31 0.47 0.78 0.62 0.60
1.23 1.35 1.33 1.36 1.69 2.17 2.02 2.21 2.54 2.33 2.99 2.32 1.36 1.19 1.37 0.92 0.40 0.41 0.36 0.44 0.50 0.63 0.57 0.35 0.45 0.66 0.55 0.35 0.42 0.34 0.27 0.20 0.23 0.34 0.41 0.78 0.93 1.18 0.88 0.43 0.67 0.75 0.46 0.52 0.72 0.63 0.43
1.51 1.56 1.72 1.55 1.62 1.88 1.95 2.12 2.36 2.44 2.79 2.57 1.74 2.14 2.26 1.27 0.56 0.45 0.41 0.37 0.43 0.54 0.96 0.52 0.49 0.76 0.44 0.24 0.19 0.13 0.09 0.06 0.10 0.13 0.22 0.60 0.90 1.41 1.11 0.77 1.00 0.68 0.33 0.29 0.41 0.46 0.37
1.70 1.73 1.85 1.93 2.04 1.78 1.82 1.95 2.12 2.20 2.03 2.03 1.67 2.31 2.53 1.76 0.63 0.48 0.32 0.45 0.57 0.56 0.67 0.57 0.34 0.33 0.22 0.24 0.51 0.44 0.21 0.16 0.08 0.05 0.15 0.40 0.89 1.25 0.88 0.66 0.41 0.35 0.28 0.25 0.34 0.33 0.25
1.56 1.90 2.11 2.19 2.22 1.95 1.75 1.66 1.88 1.80 1.84 1.73 1.39 2.01 3.06 2.86 1.09 0.54 0.51 0.51 0.65 0.69 0.71 0.43 0.24 0.28 0.39 0.67 0.89 0.66 0.29 0.22 0.15 0.09 0.11 0.31 0.70 1.22 0.80 0.90 0.46 0.33 0.16 0.05 0.11 0.27 0.12
1.60 1.74 2.12 2.27 2.26 2.21 2.12 1.90 1.93 1.62 1.51 1.64 1.38 1.54 3.01 3.16 0.86 0.22 0.45 0.78 1.08 1.05 1.19 0.67 0.58 0.61 0.56 0.83 0.87 0.49 0.22 0.15 0.24 0.38 0.30 0.40 0.53 0.80 0.68 1.09 0.37 0.31 0.11 0.01 0.20 0.32 0.12
1.54 1.41 1.82 2.28 2.11 2.02 2.17 1.89 1.72 1.47 1.55 2.03 1.28 1.16 2.61 3.12 0.91 0.21 0.26 0.64 1.12 1.17 1.52 1.31 1.53 0.95 1.00 1.07 0.92 0.53 0.41 0.32 0.18 0.23 0.25 0.39 0.59 0.44 0.51 0.72 0.33 0.16 0.10 0.25 0.42 0.31 0.21
1.99 1.95 2.21 2.37 2.02 1.85 1.69 1.56 1.61 1.52 1.57 2.28 1.54 0.92 1.68 2.63 1.64 0.41 0.29 0.26 0.54 0.84 1.36 1.54 1.41 0.80 1.21 1.37 1.11 1.04 0.76 0.39 0.21 0.29 0.04 0.30 0.37 0.57 0.61 0.35 0.17 0.16 0.29 0.34 0.35 0.43 0.30